STARLINK-1828, 46725

Orbit data source: Space-Track

STARLINK-1828, 46725 is a payload satellite owned by SpaceX/Seattle (US) in LEO that was launched on Sun, 18 Oct 2020 UTC via an FALCON 9 launch vehicle from the Air Force Eastern Test Range (AFETR). Payload-class satellites include a variety of spacecraft equipped with specific instruments for various scientific and technological missions. These include communications satellites like Starlink; space stations such as the ISS; scientific satellites like the Hubble; Earth observation satellites from companies like Planet Labs, Umbra, and HawkEye 360; GPS; miniature CubeSats for education and research; and military/defense satellites.

Loading next visibility...
Identifier
46725, 2020-073BH
Orbit
LEO
Country
Flag of USUS
Related business
Manufacturer
SpaceX/Seattle
Mission
Operational Commercial Communications
Bus & Motor
STARLINK, Unknown motor
Mass
260 kg wet, ~248 kg dry
Launch date (UTC)
2020-10-18 (5 years ago)
Launch vehicle
FALCON 9
Launch site
Air Force Eastern Test Range (AFETR)
Object type
Payload
Rocket body
Debris
Shape & HBR
Box + 1 Pan, 4.4 m
Radar Cross Section
13.562 m², Large (>1 m²)

Expand to show TLE details & history
Last TLE update: 20 hours ago

TLE from 20 hours ago
0 STARLINK-1828
1 46725U 20073BH  25261.14125724  .00000996  00000-0  85782-4 0  9996
2 46725  53.0547 311.2198 0001180  90.4697 269.6427 15.06392187270917
Epoch: 2025-09-18T03:23Z
TLE epoch observation values (Epoch: 2025-09-18T03:23:24.625Z)
Latitude
-0.00004°
Longitude
-96.93995°
Altitude
548.12 km
Speed
7.589 km/s
True Right ascension
20h 44m 52s
True Declination
0° 00' 00"
Sunlit
Object was in full shadow at epoch
Visualization orbit readout
Latitude
Unknown
Longitude
Unknown
Altitude
Unknown
Speed
Unknown
Apparent Right ascension
Unknown
Apparent Declination
Unknown
Sunlit
N/A
Visualization observer readout
Local Sidereal Time
16:37:36
Azimuth
Unknown
Elevation
Unknown
Doppler factor
Unknown
Orbital elements
Apogee altitude
548.323 km
Perigee altitude
546.689 km
Semi-major axis
6,925.643 km
Eccentricity
0.00012
Inclination
53.0547°
RAAN
311.2198°
Arg. of periapsis
90.4697°
True anomaly
269.62918°
Mean anomaly
269.6427°
Eccentric anomaly
269.63594°
Mean motion
3.76576 °/min
Orbital period
95.6 mins
BSTAR
0.000085782
Loading maneuver chart data...
Computing Atmospheric mass density...

Documentation

Showing up to 5 results
|